Regional Weather Roundup
Issued by NWS

Home | Current Version | Previous Version | Graphics & Text | Print | Product List | Glossary On
Versions: 1 2 3 4 5 6 7 8 9 10 11 12 13 14 15 16 17 18 19 20 21 22 23 24 25 26 27 28 29 30 31 32 33 34 35 36 37 38 39 40 41 42 43 44 45 46 47 48 49 50
035
ASUS44 KLIX 300311
RWRLA
LOUISIANA WEATHER ROUNDUP
NATIONAL WEATHER SERVICE NEW ORLEANS LA
1000 PM CDT SUN MAR 29 2015

NOTE: "FAIR" INDICATES FEW OR NO CLOUDS BELOW 12,000 FEET WITH NO
      SIGNIFICANT WEATHER AND/OR OBSTRUCTIONS TO VISIBILITY.
      SKY/WX - SKY CONDITION AND SIGNIFICANT WEATHER.
      TMP - AIR TEMPERATURE.    DP   - DEWPOINT TEMPERATURE.
      RH  - RELATIVE HUMIDITY.  PRES - PRESSURE.
      HX  - HEAT INDEX.         WCI  - WIND CHILL INDEX.

*  THESE STATIONS ARE NOT NWS OR FAA STATIONS AND ARE NOT UNDER
   NWS QUALITY CONTROL.

LAZ040-048-061>063-065-066-069-300400-
SOUTHEAST LOUISIANA

CITY           SKY/WX    TMP DP  RH WIND       PRES   REMARKS
N.O. AUDUBON     N/A     67  67 100 MISG        N/A
N.O. INTL ARPT MOCLDY    67  63  87 S8        30.22R
N.O. LAKEFRONT PTCLDY    68  62  81 S9        30.23R
SLIDELL        CLEAR     67  63  87 S10       30.22R
BATON ROUGE    CLEAR     68  58  70 S10       30.19S
BOOTHVILLE     CLEAR     67  63  87 SE9       30.25S
BELLE CHASSE   CLEAR     66  62  87 S7        30.22R
BOGALUSA*        N/A     66  60  80 S7        30.22S
GALLIANO*      CLEAR     67  65  91 MISG      30.23S
NEW ROADS*     FAIR      67  60  79 S5        30.19R
GONZALES*      FAIR      66  60  81 S3        30.21R
HAMMOND*       CLEAR     64  57  77 S3        30.22S
HOUMA*         CLEAR     65  64  93 S5        30.22S
PORT FOURCHON* CLEAR     72  66  83 S6        30.26S

$$

LAZ041-044-053-054-300400-
SOUTHWEST LOUISIANA

CITY           SKY/WX    TMP DP  RH WIND       PRES   REMARKS
LAKE CHARLES   CLEAR     66  63  90 S6        30.17R
LAFAYETTE      PTCLDY    68  63  84 S8        30.19S
PATTERSON      CLEAR     64  61  88 S6        30.22S
SALT POINT       N/A     66  64  93 VRB3      30.19F
NEW IBERIA     PTCLDY    66  63  90 S8        30.20R
CHENAULT AIRPK CLEAR     66  63  88 S6        30.18

$$

LAZ027-028-300400-
CENTRAL LOUISIANA

CITY           SKY/WX    TMP DP  RH WIND       PRES   REMARKS
FORT POLK      CLEAR     67  61  81 S10       30.13S
ALEXANDRIA INT CLEAR     68  58  70 S10       30.13R
ALEXANDRIA     CLEAR     68  58  70 S10       30.14S

$$

LAZ001-002-300400-
NORTHWEST LOUISIANA

CITY           SKY/WX    TMP DP  RH WIND       PRES   REMARKS
SHREVEPORT     CLEAR     72  57  59 S8        30.09R
BARKSDALE AFB  CLEAR     71  57  61 S8        30.10R
DTN SHREVEPORT CLEAR     70  56  61 S7        30.10R

$$

LAZ014-016-300400-
NORTHEAST LOUISIANA

CITY           SKY/WX    TMP DP  RH WIND       PRES   REMARKS
MONROE         CLEAR     70  58  65 S9        30.11R
TALLULAH       CLEAR     71  55  56 SW9       30.12R

$$




USA.gov is the U.S. government's official web portal to all federal, state and local government web resources and services.